Temperature
25 24 23 22 21 21 20 20 20 19 19 19 19 19 19 19 19 19 19 19 19 18 19 18 19 18 18 18 19 19 18 18 18 18 19 19 19 19 19 19 18 18 18
25 24 23 22 21 21 20 20 20 19 19 19 19 19 19 19 19 19 19 19 19 19 18 19 18 18 18 18 19 19 18 18 18 18 18 19 19 19 19 19 18 18 18
25 24 23 22 22 21 20 20 20 19 19 19 19 19 19 19 19 19 19 19 19 19 19 19 18 18 18 18 18 19 19 18 18 18 18 18 18 18 19 19 19 18 18
26 24 23 23 22 21 20 20 20 20 20 19 19 19 19 19 19 19 19 19 19 19 19 19 18 18 18 18 18 18 18 18 18 18 18 19 18 18 18 18 18 18 18
26 25 24 23 22 22 21 20 20 20 20 19 19 19 19 19 19 19 19 19 19 19 19 18 18 18 18 18 18 18 18 18 18 18 18 18 18 18 18 18 18 18 18
26 25 24 23 23 22 21 21 20 20 20 20 19 19 19 19 19 19 19 19 19 19 19 18 18 18 18 18 18 18 18 18 18 18 18 18 18 18 18 18 18 18 18
26 25 24 23 23 22 22 21 21 20 20 20 19 19 19 19 19 19 19 19 19 19 19 19 19 18 18 18 18 18 18 18 18 18 18 18 18 18 18 18 18 18 18
26 25 24 23 23 22 22 21 21 20 20 19 19 19 19 19 19 19 19 19 19 19 19 19 19 19 18 18 18 18 18 18 18 18 18 18 18 18 18 18 18 17 18
27 25 24 23 22 22 22 21 21 20 20 19 19 19 19 19 19 19 19 19 19 19 19 19 19 19 18 18 18 18 18 18 18 18 18 18 18 18 18 18 18 18 17
26 25 24 23 23 22 21 21 21 20 20 19 19 19 19 19 19 19 19 19 19 19 19 19 18 18 18 18 18 18 18 18 18 18 18 18 18 18 17 17 18 18 17
26 25 24 23 23 22 21 21 20 20 20 19 19 19 19 19 19 19 19 19 19 19 19 19 18 18 18 18 18 18 18 18 18 18 18 18 18 17 17 17 17 17 17
26 25 24 23 23 22 21 21 20 20 19 19 19 19 19 19 18 18 18 18 18 18 18 18 18 18 18 18 18 18 18 17 17 18 17 17 17 17 17 17 17 17 17
26 25 24 23 22 22 21 21 20 20 19 19 19 19 18 18 18 18 18 18 18 18 18 18 18 18 18 18 18 18 18 17 17 17 17 17 17 17 17 17 17 17 17
25 24 23 23 22 21 21 20 20 20 19 19 19 18 18 18 18 18 18 18 18 18 18 18 18 18 18 18 17 17 17 17 17 17 17 17 17 17 17 16 17 16 16
25 24 23 22 21 21 20 20 20 19 19 19 18 18 18 18 18 18 18 18 18 18 18 18 18 17 17 17 17 17 17 17 17 17 17 17 17 16 16 16 16 16 16
24 23 23 22 21 20 20 19 19 19 19 19 18 18 18 18 18 17 17 17 17 17 17 17 17 17 17 17 17 17 17 17 17 17 17 17 16 16 16 16 16 16 16
23 23 22 21 20 20 20 19 19 19 18 18 18 18 18 17 17 17 17 17 17 17 17 17 17 17 17 17 17 17 17 17 17 17 16 16 16 16 16 16 16 16 16
23 22 22 21 20 20 19 19 18 18 18 18 18 18 18 17 17 17 17 17 17 17 17 17 17 17 17 17 17 17 17 17 16 16 16 16 16 16 16 16 15 15 15
22 22 21 21 20 19 19 18 18 18 17 17 17 17 17 17 17 17 17 17 17 17 17 16 16 16 16 16 16 16 16 16 16 16 16 15 15 15 15 15 15 15 15
21 21 20 20 19 19 18 18 17 17 17 17 17 17 17 17 17 17 17 16 16 16 16 16 16 16 16 16 16 16 16 16 15 15 15 15 15 15 15 15 14 14 14
20 20 20 19 18 18 18 17 17 17 17 16 16 16 16 16 16 16 16 16 16 16 16 16 16 16 16 15 15 15 15 15 15 15 15 15 15 15 14 14 14 14 14
19 19 19 18 18 17 17 17 16 16 16 16 16 16 16 16 16 16 16 16 16 15 15 15 15 15 15 15 15 15 15 15 14 14 14 14 14 14 14 14 14 14 13
18 18 18 17 17 17 16 16 16 16 16 16 15 15 15 16 16 16 15 15 15 15 15 15 15 15 15 15 15 15 14 14 14 14 14 14 14 14 14 14 13 13 13
17 17 17 16 16 16 16 16 16 15 15 15 15 15 15 15 15 15 15 15 15 15 15 15 15 14 14 14 14 14 14 14 14 14 14 14 14 13 13 13 13 13 13
16 16 16 16 15 15 15 15 15 15 15 15 15 15 15 15 15 15 15 15 15 14 15 15 15 14 14 14 14 14 14 13 13 13 13 13 13 13 13 13 12 12 12
16 16 15 15 15 15 15 15 15 15 15 14 14 14 14 14 14 14 14 14 14 14 14 14 14 14 14 14 13 13 13 13 13 13 13 12 12 12 12 12 12 12 12
Wind_Speed
12 12 12 12 12 10 8 7 7 6 5 4 4 3 3 3 3 3 5 5 4 4 3 2 2 2 2 2 1 1 2 2 2 2 1 2 2 2 3 2 1 2 4
12 12 12 12 12 11 9 8 7 7 6 4 4 3 3 3 3 2 4 5 4 4 5 3 2 2 2 2 2 2 2 2 2 1 1 1 1 1 3 3 3 2 2
13 13 12 12 12 12 11 9 8 7 7 5 4 3 3 3 3 3 3 4 5 5 4 4 3 2 2 2 3 3 3 2 2 2 1 1 1 1 1 2 2 2 1
12 14 13 12 12 12 11 9 9 8 7 6 6 6 5 4 4 3 3 4 5 5 5 4 4 3 2 2 3 3 3 3 3 2 2 2 1 1 1 1 1 2 2
10 13 14 13 11 11 11 10 9 8 8 7 6 5 5 4 4 4 4 4 4 4 4 4 3 2 2 2 2 1 2 2 3 2 2 2 2 3 2 2 1 1 1
10 10 12 11 10 10 10 10 10 9 8 8 7 5 5 4 4 4 4 4 3 4 5 5 4 3 3 3 2 2 3 3 3 3 3 2 2 2 2 2 3 2 2
10 9 9 10 9 9 9 9 9 9 9 9 8 7 6 5 5 4 4 5 4 4 5 5 4 3 3 3 3 2 3 3 4 4 3 3 3 2 2 2 2 2 2
9 9 9 8 8 8 8 8 9 8 9 9 8 7 7 6 5 5 4 4 4 3 4 5 4 4 4 5 3 4 4 4 4 5 4 4 3 2 2 2 2 2 2
8 8 8 8 7 6 6 7 7 8 8 8 8 7 7 6 5 4 5 4 4 4 4 5 5 5 5 4 4 4 4 4 4 5 5 4 3 3 3 2 3 3 3
7 7 7 7 7 7 6 5 4 6 6 6 6 7 6 6 5 5 4 4 4 4 3 4 4 4 5 5 5 5 5 4 5 4 4 4 4 3 3 3 3 2 3
5 6 6 6 7 6 5 5 4 4 4 4 5 4 5 6 6 5 5 5 4 4 4 4 5 5 5 5 5 6 5 5 5 5 5 5 4 3 3 3 3 3 2
4 4 5 5 6 6 6 5 5 4 3 2 3 4 4 5 6 6 5 5 5 5 5 4 5 6 5 5 6 6 6 5 6 6 5 5 5 4 4 3 4 3 3
5 5 5 4 4 4 4 4 4 4 4 3 3 3 3 4 5 5 5 4 5 5 5 5 6 6 5 6 6 6 6 6 6 6 5 5 4 5 4 4 3 3 3
4 4 4 3 2 2 2 2 3 3 3 3 3 3 3 3 4 4 4 4 5 5 5 6 5 5 6 6 6 6 6 5 5 5 5 4 4 4 4 4 3 3 2
3 3 4 3 2 2 2 1 1 2 2 3 3 3 3 2 3 4 4 5 5 7 5 5 5 6 6 6 5 5 6 5 5 4 4 4 2 2 2 3 2 2 2
2 2 3 3 2 2 1 1 0 0 1 2 2 2 3 3 3 3 3 4 4 4 4 5 5 5 6 4 4 4 4 4 5 4 3 3 3 2 3 2 2 2 3
3 2 2 3 2 2 2 2 1 1 1 1 2 2 3 3 3 4 3 3 4 4 4 4 4 4 4 3 3 4 4 4 3 3 3 4 2 3 2 1 1 1 2
1 1 2 2 3 3 2 1 1 1 1 1 2 2 2 3 3 3 3 3 3 3 4 4 4 3 3 2 2 3 3 3 3 3 3 2 2 2 2 1 2 1 1
2 1 1 1 2 2 2 1 1 1 1 2 2 2 2 2 2 2 3 3 3 3 3 3 3 2 2 2 2 2 2 2 2 2 2 2 2 2 3 2 2 1 1
2 2 1 1 2 2 1 0 1 1 1 2 2 2 2 2 3 3 3 3 3 3 3 3 2 2 2 2 3 3 2 2 2 1 2 2 3 3 3 3 2 2 2
3 2 2 1 2 1 1 0 1 2 2 2 2 2 2 3 3 2 2 2 2 3 3 2 2 2 2 3 3 2 2 2 2 2 2 1 3 3 4 4 3 4 3
3 2 2 2 2 2 1 1 1 2 2 2 2 2 2 2 2 1 2 2 3 3 3 2 2 2 2 3 3 3 3 2 2 2 1 1 2 2 3 3 3 3 2
4 3 2 2 3 3 1 0 1 1 1 1 2 1 1 1 1 1 1 1 2 2 2 2 2 2 1 2 3 3 2 2 2 1 1 2 3 2 3 4 4 3 2
2 3 3 3 3 3 2 1 1 1 1 2 1 1 1 0 1 1 1 1 1 2 2 1 1 1 1 1 1 1 1 1 1 0 1 1 2 3 3 2 2 3 3
3 3 2 2 2 2 2 2 1 1 2 2 2 2 2 1 1 0 1 1 0 1 1 1 1 1 1 1 2 2 1 1 1 0 1 1 1 1 1 1 2 2 1
2 2 2 2 2 2 2 2 2 1 2 2 2 2 1 1 1 2 1 4 3 3 3 3 1 1 2 2 2 2 2 1 1 1 1 1 1 1 1 1 1 1 1
Wind_Direction
163 160 160 156 153 154 154 158 163 164 174 174 180 181 182 175 174 175 164 164 183 192 205 209 165 198 205 202 205 181 234 242 243 262 283 228 204 185 178 183 178 165 175
160 159 163 164 163 161 163 164 167 170 182 182 183 186 180 184 186 172 158 171 185 199 202 212 202 204 197 207 221 222 244 249 244 254 285 301 293 252 192 172 185 186 174
166 165 169 170 168 169 173 176 175 177 184 182 183 191 174 188 186 184 175 181 193 206 219 198 215 216 206 206 211 222 226 243 248 237 219 227 235 289 217 198 168 157 165
172 169 173 175 176 175 176 173 171 175 179 185 191 192 188 192 197 186 189 187 194 205 215 207 216 229 238 225 222 211 235 238 254 251 240 225 205 198 233 255 175 174 197
169 171 174 176 178 176 175 175 170 176 180 190 197 199 202 200 194 188 195 193 199 207 215 205 210 213 232 241 235 245 242 243 253 258 257 246 237 227 215 233 237 255 232
163 164 167 167 175 173 172 172 170 177 182 190 197 202 209 214 210 204 197 201 209 211 211 205 203 214 226 234 225 228 239 250 265 275 276 261 234 231 226 227 224 223 242
156 156 162 167 171 173 174 170 165 176 185 190 198 201 209 216 220 221 214 213 220 216 210 205 194 211 221 229 231 231 236 235 244 252 260 263 259 252 238 222 236 249 243
152 153 161 165 171 176 177 173 169 177 187 191 198 203 207 216 223 226 227 220 222 224 201 186 192 205 215 227 219 226 230 223 237 249 251 258 265 261 242 227 220 243 250
143 150 154 155 163 170 171 176 169 178 189 194 195 202 206 214 221 222 220 233 224 225 204 198 201 207 218 227 223 234 236 230 235 241 243 246 250 251 249 240 223 228 257
137 153 155 158 166 168 159 150 155 179 187 192 204 205 204 211 223 236 231 231 239 235 219 209 214 213 220 229 229 233 234 229 235 236 238 252 249 245 245 246 248 243 243
126 134 148 154 158 154 153 163 160 161 180 198 207 215 205 208 217 224 234 235 241 243 232 224 220 218 223 225 228 238 235 236 241 245 238 239 249 249 250 253 251 240 238
119 120 128 135 148 155 163 172 174 179 182 188 199 209 209 204 215 224 229 233 231 236 235 225 226 227 227 228 230 236 239 235 239 244 244 244 244 240 249 252 253 245 234
119 126 125 128 140 149 162 178 186 186 186 190 205 208 218 214 220 229 233 233 234 238 239 231 229 234 235 233 234 235 241 242 240 241 244 243 244 244 244 245 248 251 252
114 117 119 116 115 125 140 158 182 186 184 188 202 214 226 234 237 238 237 236 236 237 243 245 242 241 241 239 237 238 241 245 247 245 249 250 246 246 248 245 246 254 251
123 110 115 120 116 116 125 127 156 159 178 189 207 218 226 237 245 244 242 241 240 242 238 244 246 247 248 245 238 241 240 240 249 247 240 237 215 208 230 252 250 248 243
140 144 129 136 141 142 141 141 152 131 166 196 214 213 222 228 241 246 245 246 246 249 243 242 244 248 252 251 226 226 243 237 239 245 239 217 195 187 185 230 250 241 235
178 190 157 145 161 178 178 176 175 223 231 221 224 217 220 226 234 246 244 249 251 245 243 246 244 249 264 270 229 211 231 241 236 234 227 231 208 172 163 171 172 249 258
138 152 173 167 175 183 189 183 190 207 238 256 263 246 241 243 240 237 238 243 253 253 243 246 246 246 260 254 227 222 216 233 231 222 221 211 199 218 163 202 220 224 270
44 20 227 195 159 161 161 183 206 204 245 266 284 282 268 262 252 246 249 243 242 246 245 242 243 246 253 205 199 207 223 222 230 223 213 204 188 198 178 190 196 217 280
60 36 354 70 94 81 97 188 257 240 272 289 297 299 289 275 267 260 254 244 234 234 243 240 230 227 231 202 185 195 218 223 236 231 205 206 199 193 180 200 207 224 246
28 48 19 56 75 56 87 48 333 300 300 306 305 304 291 273 262 259 249 234 232 231 229 237 222 208 196 181 182 195 222 231 239 242 236 218 170 173 186 205 224 233 243
8 20 36 50 61 56 59 33 328 309 336 322 304 300 297 282 281 264 242 230 228 224 215 209 225 214 181 168 179 184 224 236 238 247 239 196 169 180 205 210 234 252 255
15 15 36 56 63 56 59 198 289 335 329 296 289 292 303 326 332 263 242 236 229 232 235 221 222 219 164 143 149 167 215 239 241 258 263 226 209 221 223 216 214 218 225
23 24 28 46 56 47 31 7 359 345 300 286 275 268 259 247 20 2 314 282 286 269 262 250 238 208 127 110 112 136 169 192 228 316 0 313 242 249 237 230 216 216 222
13 21 36 36 29 33 22 360 342 301 278 274 260 244 235 218 151 117 358 330 22 214 209 289 268 217 218 195 163 166 178 171 201 175 224 244 230 198 220 233 231 228 219
352 13 38 44 29 21 17 6 344 317 284 273 281 268 242 213 184 160 95 41 54 77 89 97 118 70 123 150 147 148 156 161 156 152 208 229 233 217 216 230 246 232 215
Height
1511 1514 1517 1519 1521 1522 1524 1526 1528 1530 1531 1533 1534 1535 1537 1538 1539 1541 1541 1542 1542 1543 1544 1545 1545 1546 1547 1548 1548 1548 1549 1549 1550 1550 1550 1550 1550 1550 1550 1551 1551 1552 1552
1509 1512 1515 1518 1520 1521 1523 1525 1526 1528 1530 1531 1533 1535 1536 1537 1539 1540 1540 1541 1541 1542 1543 1544 1544 1545 1546 1546 1547 1547 1547 1548 1549 1549 1549 1549 1550 1549 1549 1549 1550 1550 1551
1506 1510 1513 1516 1518 1520 1521 1523 1525 1527 1528 1530 1532 1534 1535 1537 1538 1538 1539 1539 1540 1541 1542 1542 1543 1544 1544 1545 1545 1546 1546 1546 1547 1548 1548 1548 1548 1548 1548 1548 1549 1549 1549
1503 1507 1510 1514 1516 1518 1520 1522 1523 1525 1527 1529 1530 1532 1533 1534 1536 1537 1538 1538 1539 1539 1540 1541 1542 1542 1543 1544 1544 1544 1545 1545 1546 1546 1547 1547 1547 1547 1547 1548 1548 1548 1547
1500 1504 1507 1511 1514 1516 1518 1520 1521 1523 1525 1527 1529 1530 1532 1533 1534 1535 1536 1537 1537 1538 1539 1539 1540 1540 1541 1542 1543 1543 1543 1544 1544 1544 1545 1545 1545 1545 1546 1546 1546 1546 1546
1498 1501 1505 1508 1512 1514 1516 1518 1519 1521 1523 1525 1526 1528 1530 1531 1533 1533 1534 1535 1536 1536 1537 1537 1538 1538 1539 1540 1541 1541 1542 1542 1542 1542 1543 1543 1543 1543 1544 1543 1544 1544 1544
1496 1500 1503 1507 1509 1512 1514 1516 1517 1518 1520 1522 1524 1526 1527 1529 1530 1531 1532 1533 1534 1534 1535 1536 1536 1536 1537 1538 1538 1539 1539 1540 1540 1540 1541 1541 1541 1541 1542 1542 1542 1542 1542
1494 1498 1501 1505 1507 1510 1512 1514 1515 1516 1518 1520 1521 1523 1525 1526 1528 1529 1530 1531 1531 1532 1533 1533 1534 1534 1535 1536 1536 1536 1537 1537 1537 1538 1538 1539 1539 1539 1539 1540 1539 1539 1540
1492 1496 1499 1502 1505 1507 1509 1511 1512 1514 1516 1518 1519 1521 1522 1524 1525 1526 1527 1528 1529 1530 1531 1531 1531 1532 1532 1533 1533 1534 1534 1534 1535 1535 1536 1536 1536 1536 1537 1537 1537 1538 1537
1491 1494 1497 1500 1503 1505 1507 1509 1510 1512 1513 1515 1517 1518 1519 1520 1521 1523 1524 1525 1526 1527 1528 1528 1529 1529 1530 1530 1531 1531 1531 1531 1531 1532 1532 1532 1533 1533 1534 1534 1534 1535 1535
1490 1493 1495 1497 1500 1503 1505 1507 1508 1510 1511 1512 1513 1515 1516 1517 1518 1519 1520 1521 1522 1524 1524 1525 1525 1526 1526 1527 1527 1528 1528 1528 1528 1528 1529 1529 1529 1530 1530 1531 1531 1531 1531
1490 1493 1495 1497 1499 1501 1503 1504 1506 1507 1508 1510 1511 1512 1513 1514 1515 1515 1516 1518 1518 1519 1520 1521 1522 1522 1522 1523 1523 1524 1524 1524 1525 1525 1525 1525 1526 1526 1527 1527 1527 1527 1527
1490 1492 1494 1496 1498 1499 1501 1502 1503 1504 1506 1507 1508 1509 1509 1510 1511 1512 1513 1514 1515 1516 1517 1517 1518 1518 1519 1519 1519 1520 1520 1521 1520 1521 1521 1521 1522 1522 1523 1523 1523 1523 1524
1489 1491 1493 1496 1497 1498 1499 1500 1501 1502 1503 1504 1505 1506 1506 1507 1508 1509 1509 1510 1511 1511 1512 1513 1514 1514 1515 1515 1516 1516 1516 1516 1516 1516 1517 1517 1518 1518 1518 1519 1519 1520 1520
1488 1490 1493 1494 1496 1497 1498 1499 1499 1501 1501 1502 1502 1502 1503 1504 1504 1505 1506 1506 1507 1508 1508 1509 1510 1511 1511 1511 1511 1511 1512 1511 1512 1512 1512 1513 1513 1514 1515 1515 1516 1516 1516
1488 1490 1492 1493 1495 1496 1497 1497 1498 1499 1499 1499 1499 1499 1500 1500 1500 1501 1502 1502 1503 1503 1504 1505 1505 1506 1507 1507 1507 1507 1507 1507 1508 1508 1508 1509 1509 1510 1511 1511 1512 1512 1512
1486 1489 1490 1491 1493 1494 1495 1495 1496 1496 1496 1496 1496 1496 1497 1497 1497 1497 1498 1498 1498 1499 1500 1501 1502 1502 1502 1503 1503 1503 1503 1503 1503 1504 1504 1505 1505 1506 1506 1507 1508 1508 1508
1484 1487 1488 1490 1491 1492 1493 1493 1494 1494 1494 1494 1494 1494 1494 1493 1493 1493 1494 1494 1495 1495 1496 1497 1497 1498 1498 1499 1499 1499 1500 1500 1500 1500 1501 1501 1501 1502 1503 1503 1503 1503 1504
1484 1486 1487 1488 1489 1490 1490 1491 1491 1491 1492 1491 1491 1491 1491 1491 1490 1490 1490 1491 1491 1492 1492 1493 1494 1494 1494 1495 1495 1495 1496 1496 1496 1497 1497 1498 1498 1499 1500 1500 1500 1500 1500
1484 1486 1486 1487 1487 1488 1488 1489 1489 1489 1489 1489 1489 1488 1488 1488 1488 1487 1488 1488 1488 1488 1489 1489 1490 1490 1491 1491 1491 1492 1492 1492 1493 1494 1494 1495 1495 1496 1496 1497 1497 1497 1497
1484 1484 1485 1486 1486 1486 1486 1486 1486 1486 1486 1487 1486 1486 1485 1485 1485 1485 1485 1485 1485 1485 1485 1486 1487 1487 1487 1488 1488 1489 1489 1490 1490 1490 1491 1492 1492 1493 1493 1494 1494 1494 1494
1483 1483 1484 1484 1484 1484 1484 1484 1484 1484 1484 1485 1484 1484 1483 1483 1483 1483 1483 1483 1482 1482 1482 1483 1484 1484 1484 1485 1485 1486 1487 1488 1488 1488 1488 1489 1489 1490 1490 1491 1491 1491 1491
1482 1482 1482 1482 1482 1482 1483 1483 1483 1483 1483 1482 1482 1481 1481 1480 1480 1480 1480 1481 1480 1480 1481 1481 1481 1481 1482 1482 1483 1484 1484 1485 1485 1485 1486 1486 1486 1487 1487 1487 1487 1488 1488
1482 1482 1482 1481 1481 1481 1481 1482 1481 1481 1481 1481 1480 1479 1479 1478 1478 1479 1479 1479 1479 1479 1479 1479 1479 1479 1479 1479 1480 1480 1481 1481 1482 1483 1483 1483 1483 1484 1484 1483 1485 1485 1485
1481 1481 1481 1481 1480 1480 1479 1479 1480 1479 1479 1478 1477 1477 1477 1477 1476 1477 1477 1477 1477 1477 1478 1477 1477 1477 1477 1477 1477 1477 1478 1478 1479 1480 1480 1481 1481 1481 1481 1481 1482 1483 1483
1481 1481 1480 1480 1480 1479 1478 1478 1478 1477 1477 1476 1476 1476 1476 1476 1475 1475 1475 1476 1476 1476 1476 1476 1476 1475 1476 1475 1475 1476 1476 1477 1478 1478 1478 1479 1479 1479 1479 1480 1480 1480 1480